QPF
0.17 0.11 0.08 0.07 0.07 0.05 0.04 0.05 0.04 0.03 0.03 0.04 0.04 0.03 0.03 0.02 0.03 0.03 0.04 0.05 0.07 0.06 0.05 0.03 0.03 0.04 0.04 0.05 0.04 0.03 0.03 0.03 0.02 0.03 0.03 0.04 0.06 0.07 0.07 0.08 0.09 0.09 0.08
0.09 0.08 0.08 0.09 0.08 0.06 0.04 0.03 0.05 0.05 0.03 0.05 0.07 0.06 0.02 0.01 0.01 0.03 0.04 0.07 0.07 0.06 0.05 0.04 0.04 0.05 0.06 0.05 0.04 0.03 0.03 0.03 0.03 0.03 0.03 0.03 0.05 0.07 0.09 0.10 0.09 0.08 0.07
0.05 0.06 0.08 0.10 0.09 0.06 0.04 0.04 0.04 0.05 0.05 0.05 0.05 0.05 0.02 0.01 0.02 0.03 0.05 0.07 0.08 0.05 0.03 0.04 0.05 0.05 0.07 0.07 0.05 0.04 0.04 0.04 0.04 0.04 0.04 0.04 0.04 0.07 0.08 0.08 0.08 0.06 0.06
0.05 0.07 0.09 0.11 0.10 0.07 0.05 0.06 0.05 0.05 0.06 0.05 0.05 0.04 0.03 0.03 0.02 0.03 0.04 0.05 0.07 0.06 0.04 0.03 0.04 0.04 0.05 0.06 0.05 0.04 0.05 0.06 0.07 0.07 0.07 0.05 0.05 0.05 0.07 0.08 0.07 0.06 0.05
0.05 0.08 0.09 0.10 0.10 0.09 0.06 0.06 0.07 0.08 0.09 0.07 0.07 0.06 0.04 0.05 0.04 0.03 0.03 0.05 0.04 0.05 0.04 0.02 0.03 0.04 0.03 0.05 0.05 0.04 0.04 0.05 0.05 0.07 0.07 0.07 0.08 0.07 0.07 0.07 0.06 0.05 0.04
0.05 0.07 0.09 0.09 0.10 0.10 0.10 0.08 0.09 0.09 0.08 0.06 0.09 0.09 0.04 0.02 0.04 0.04 0.02 0.02 0.02 0.02 0.03 0.04 0.05 0.04 0.02 0.02 0.03 0.04 0.04 0.03 0.03 0.04 0.04 0.05 0.05 0.05 0.06 0.05 0.03 0.03 0.02
0.03 0.05 0.07 0.07 0.07 0.08 0.10 0.09 0.10 0.11 0.07 0.05 0.10 0.11 0.07 0.05 0.04 0.04 0.04 0.03 0.01 0.01 0.03 0.09 0.06 0.06 0.03 0.02 0.02 0.02 0.03 0.03 0.03 0.03 0.04 0.03 0.02 0.03 0.03 0.03 0.02 0.02 0.03
0.03 0.04 0.06 0.06 0.06 0.06 0.07 0.08 0.09 0.11 0.09 0.08 0.11 0.14 0.11 0.08 0.06 0.04 0.04 0.04 0.04 0.03 0.02 0.05 0.05 0.06 0.05 0.04 0.03 0.01 0.02 0.03 0.02 0.02 0.02 0.03 0.02 0.02 0.02 0.03 0.04 0.03 0.03
0.02 0.03 0.05 0.06 0.06 0.06 0.09 0.08 0.08 0.09 0.11 0.10 0.10 0.11 0.12 0.12 0.11 0.07 0.04 0.04 0.04 0.03 0.03 0.03 0.03 0.05 0.06 0.06 0.05 0.02 0.02 0.02 0.03 0.03 0.03 0.03 0.02 0.02 0.02 0.03 0.05 0.04 0.03
0.02 0.02 0.03 0.03 0.03 0.05 0.08 0.09 0.08 0.09 0.10 0.11 0.10 0.09 0.10 0.11 0.13 0.11 0.07 0.06 0.05 0.06 0.06 0.03 0.03 0.04 0.06 0.07 0.06 0.03 0.02 0.02 0.02 0.03 0.03 0.04 0.03 0.02 0.02 0.02 0.03 0.04 0.04
0.03 0.03 0.03 0.03 0.03 0.04 0.06 0.09 0.09 0.09 0.09 0.09 0.11 0.10 0.11 0.10 0.12 0.10 0.09 0.08 0.06 0.05 0.07 0.07 0.04 0.03 0.03 0.03 0.03 0.02 0.02 0.01 0.02 0.02 0.02 0.03 0.02 0.01 0.02 0.02 0.03 0.03 0.05
0.03 0.02 0.03 0.04 0.04 0.04 0.05 0.06 0.07 0.08 0.06 0.06 0.09 0.10 0.10 0.09 0.11 0.10 0.09 0.10 0.10 0.06 0.04 0.04 0.02 0.01 0.01 0.01 0.01 0.00 0.01 0.00 0.01 0.01 0.02 0.02 0.02 0.02 0.02 0.02 0.03 0.03 0.04
0.02 0.02 0.03 0.04 0.03 0.03 0.04 0.04 0.06 0.06 0.06 0.06 0.08 0.09 0.07 0.06 0.07 0.09 0.10 0.09 0.09 0.07 0.04 0.02 0.01 0.01 0.01 0.01 0.01 0.00 0.00 0.00 0.00 0.00 0.00 0.01 0.01 0.01 0.01 0.02 0.02 0.02 0.02
0.01 0.02 0.03 0.03 0.03 0.03 0.04 0.05 0.04 0.04 0.05 0.06 0.06 0.06 0.05 0.04 0.05 0.06 0.09 0.10 0.10 0.09 0.07 0.02 0.00 0.00 0.00 0.01 0.01 0.00 0.00 0.00 0.00 0.00 0.00 0.00 0.00 0.01 0.01 0.01 0.01 0.02 0.02
0.03 0.02 0.01 0.02 0.02 0.03 0.03 0.05 0.05 0.05 0.06 0.06 0.05 0.05 0.05 0.04 0.05 0.05 0.07 0.09 0.13 0.14 0.10 0.05 0.02 0.00 0.00 0.01 0.01 0.01 0.01 0.01 0.00 0.00 0.00 0.00 0.00 0.00 0.01 0.01 0.02 0.01 0.01
0.03 0.03 0.02 0.02 0.03 0.03 0.03 0.04 0.05 0.07 0.07 0.07 0.06 0.05 0.05 0.05 0.06 0.06 0.06 0.07 0.10 0.14 0.11 0.07 0.05 0.02 0.01 0.01 0.01 0.01 0.01 0.01 0.00 0.01 0.01 0.01 0.01 0.01 0.01 0.01 0.01 0.02 0.02
0.03 0.03 0.03 0.03 0.03 0.04 0.05 0.07 0.06 0.07 0.06 0.05 0.05 0.06 0.05 0.05 0.06 0.05 0.06 0.06 0.08 0.10 0.11 0.09 0.07 0.04 0.02 0.01 0.01 0.01 0.01 0.01 0.00 0.01 0.01 0.01 0.01 0.01 0.01 0.01 0.01 0.01 0.02
0.03 0.03 0.03 0.04 0.05 0.06 0.07 0.07 0.05 0.05 0.05 0.04 0.04 0.04 0.03 0.05 0.07 0.06 0.06 0.05 0.06 0.08 0.10 0.10 0.08 0.07 0.06 0.04 0.03 0.02 0.01 0.01 0.01 0.02 0.01 0.01 0.01 0.01 0.01 0.01 0.01 0.01 0.01
0.02 0.02 0.02 0.03 0.05 0.06 0.08 0.07 0.06 0.04 0.04 0.04 0.04 0.03 0.03 0.04 0.05 0.06 0.06 0.05 0.05 0.07 0.09 0.09 0.07 0.07 0.06 0.05 0.05 0.03 0.02 0.02 0.01 0.01 0.01 0.01 0.02 0.02 0.01 0.01 0.01 0.01 0.02
0.03 0.02 0.03 0.04 0.04 0.05 0.08 0.08 0.06 0.05 0.04 0.04 0.04 0.03 0.03 0.03 0.04 0.05 0.05 0.06 0.06 0.06 0.07 0.07 0.07 0.06 0.06 0.05 0.08 0.05 0.03 0.03 0.02 0.01 0.02 0.02 0.02 0.03 0.02 0.02 0.02 0.03 0.04
0.05 0.05 0.05 0.07 0.05 0.05 0.04 0.04 0.05 0.05 0.05 0.04 0.03 0.03 0.02 0.02 0.02 0.02 0.03 0.03 0.04 0.05 0.05 0.06 0.06 0.07 0.08 0.07 0.07 0.08 0.06 0.05 0.04 0.02 0.03 0.03 0.03 0.02 0.02 0.03 0.04 0.05 0.05
0.07 0.07 0.08 0.07 0.05 0.03 0.02 0.02 0.03 0.05 0.06 0.06 0.05 0.05 0.04 0.02 0.02 0.02 0.02 0.02 0.03 0.04 0.04 0.05 0.06 0.08 0.08 0.07 0.07 0.08 0.07 0.07 0.05 0.04 0.05 0.04 0.02 0.03 0.03 0.04 0.05 0.06 0.05
0.06 0.07 0.06 0.05 0.04 0.03 0.02 0.02 0.02 0.04 0.05 0.06 0.06 0.06 0.04 0.03 0.03 0.03 0.03 0.03 0.03 0.04 0.06 0.07 0.06 0.07 0.07 0.08 0.09 0.08 0.09 0.09 0.07 0.06 0.08 0.06 0.04 0.04 0.03 0.04 0.06 0.06 0.04
0.05 0.05 0.04 0.03 0.03 0.02 0.03 0.04 0.05 0.04 0.04 0.04 0.04 0.05 0.04 0.04 0.04 0.06 0.07 0.06 0.04 0.04 0.06 0.07 0.06 0.05 0.04 0.06 0.08 0.09 0.08 0.07 0.07 0.06 0.08 0.07 0.04 0.04 0.03 0.03 0.05 0.04 0.03
0.05 0.04 0.04 0.03 0.03 0.03 0.04 0.04 0.05 0.04 0.04 0.04 0.04 0.04 0.04 0.04 0.04 0.05 0.06 0.06 0.07 0.05 0.03 0.05 0.05 0.04 0.04 0.05 0.06 0.08 0.08 0.08 0.07 0.06 0.07 0.07 0.04 0.04 0.04 0.04 0.04 0.04 0.03
0.03 0.03 0.04 0.04 0.04 0.04 0.05 0.05 0.04 0.04 0.04 0.04 0.04 0.04 0.05 0.06 0.07 0.06 0.05 0.05 0.05 0.05 0.05 0.06 0.05 0.05 0.04 0.05 0.06 0.06 0.07 0.08 0.07 0.06 0.06 0.07 0.06 0.06 0.05 0.04 0.04 0.04 0.03
MSLP
1007.94 1007.59 1007.09 1006.52 1005.94 1005.46 1005.11 1004.92 1004.89 1004.97 1005.12 1005.32 1005.53 1005.75 1005.99 1006.24 1006.53 1006.85 1007.19 1007.55 1007.92 1008.30 1008.70 1009.15 1009.64 1010.18 1010.75 1011.32 1011.84 1012.26 1012.58 1012.77 1012.87 1012.93 1013.02 1013.19 1013.47 1013.88 1014.37 1014.89 1015.38 1015.79 1016.09
1008.37 1008.14 1007.77 1007.29 1006.78 1006.30 1005.93 1005.68 1005.56 1005.58 1005.69 1005.86 1006.08 1006.31 1006.57 1006.84 1007.13 1007.45 1007.79 1008.16 1008.56 1009.00 1009.47 1009.97 1010.50 1011.05 1011.57 1012.03 1012.41 1012.68 1012.84 1012.92 1012.94 1012.98 1013.08 1013.29 1013.61 1014.04 1014.53 1015.03 1015.47 1015.82 1016.07
1008.65 1008.52 1008.27 1007.92 1007.52 1007.12 1006.77 1006.52 1006.38 1006.36 1006.43 1006.58 1006.79 1007.02 1007.28 1007.55 1007.83 1008.13 1008.47 1008.84 1009.24 1009.70 1010.19 1010.71 1011.24 1011.74 1012.20 1012.56 1012.82 1012.97 1013.03 1013.03 1013.02 1013.05 1013.17 1013.40 1013.74 1014.17 1014.64 1015.10 1015.49 1015.80 1016.01
1008.78 1008.73 1008.59 1008.37 1008.10 1007.81 1007.55 1007.35 1007.23 1007.21 1007.29 1007.43 1007.62 1007.85 1008.09 1008.35 1008.60 1008.87 1009.17 1009.49 1009.86 1010.28 1010.74 1011.22 1011.70 1012.15 1012.53 1012.82 1013.01 1013.10 1013.11 1013.09 1013.08 1013.13 1013.28 1013.52 1013.87 1014.27 1014.70 1015.10 1015.44 1015.70 1015.89
1008.82 1008.80 1008.75 1008.65 1008.50 1008.34 1008.19 1008.07 1008.01 1008.03 1008.11 1008.26 1008.46 1008.67 1008.90 1009.12 1009.33 1009.55 1009.77 1010.02 1010.30 1010.63 1011.00 1011.40 1011.81 1012.18 1012.51 1012.76 1012.92 1013.01 1013.05 1013.07 1013.11 1013.21 1013.39 1013.65 1013.97 1014.33 1014.69 1015.02 1015.29 1015.52 1015.69
1008.85 1008.83 1008.82 1008.81 1008.77 1008.72 1008.67 1008.64 1008.64 1008.69 1008.80 1008.95 1009.14 1009.35 1009.55 1009.73 1009.89 1010.03 1010.16 1010.30 1010.47 1010.68 1010.93 1011.23 1011.54 1011.85 1012.14 1012.39 1012.58 1012.73 1012.85 1012.96 1013.09 1013.25 1013.47 1013.73 1014.02 1014.32 1014.60 1014.85 1015.06 1015.24 1015.41
1008.93 1008.89 1008.90 1008.94 1008.97 1009.00 1009.02 1009.04 1009.09 1009.16 1009.28 1009.43 1009.60 1009.79 1009.96 1010.10 1010.21 1010.27 1010.31 1010.34 1010.38 1010.46 1010.58 1010.76 1010.98 1011.24 1011.51 1011.78 1012.03 1012.28 1012.51 1012.74 1012.98 1013.23 1013.49 1013.75 1014.01 1014.23 1014.43 1014.59 1014.73 1014.86 1015.02
1009.13 1009.06 1009.06 1009.11 1009.17 1009.24 1009.29 1009.33 1009.39 1009.45 1009.55 1009.68 1009.83 1009.99 1010.13 1010.23 1010.29 1010.29 1010.25 1010.18 1010.11 1010.07 1010.07 1010.14 1010.27 1010.48 1010.73 1011.03 1011.35 1011.70 1012.05 1012.40 1012.75 1013.08 1013.39 1013.66 1013.88 1014.05 1014.16 1014.25 1014.32 1014.41 1014.54
1009.44 1009.33 1009.32 1009.36 1009.42 1009.49 1009.54 1009.57 1009.60 1009.63 1009.69 1009.77 1009.89 1010.01 1010.12 1010.20 1010.23 1010.19 1010.09 1009.95 1009.80 1009.65 1009.55 1009.52 1009.57 1009.72 1009.95 1010.26 1010.63 1011.05 1011.49 1011.94 1012.38 1012.78 1013.13 1013.41 1013.61 1013.73 1013.79 1013.82 1013.84 1013.89 1014.00
1009.81 1009.68 1009.65 1009.68 1009.73 1009.77 1009.80 1009.79 1009.77 1009.76 1009.76 1009.80 1009.87 1009.97 1010.06 1010.13 1010.14 1010.09 1009.97 1009.80 1009.58 1009.37 1009.18 1009.06 1009.02 1009.09 1009.27 1009.55 1009.93 1010.37 1010.86 1011.37 1011.86 1012.31 1012.69 1012.98 1013.18 1013.28 1013.32 1013.31 1013.30 1013.32 1013.40
1010.16 1010.03 1009.99 1010.01 1010.04 1010.07 1010.06 1010.02 1009.95 1009.89 1009.85 1009.84 1009.88 1009.95 1010.04 1010.11 1010.14 1010.10 1009.98 1009.79 1009.54 1009.28 1009.02 1008.81 1008.69 1008.66 1008.76 1008.97 1009.30 1009.71 1010.18 1010.69 1011.19 1011.66 1012.06 1012.37 1012.58 1012.70 1012.74 1012.73 1012.71 1012.71 1012.77
1010.42 1010.31 1010.27 1010.29 1010.31 1010.32 1010.29 1010.23 1010.14 1010.04 1009.97 1009.94 1009.96 1010.03 1010.13 1010.21 1010.26 1010.24 1010.14 1009.95 1009.69 1009.39 1009.08 1008.79 1008.57 1008.45 1008.44 1008.54 1008.77 1009.09 1009.50 1009.95 1010.42 1010.88 1011.28 1011.60 1011.84 1011.99 1012.07 1012.09 1012.09 1012.09 1012.13
1010.57 1010.48 1010.45 1010.47 1010.50 1010.51 1010.48 1010.41 1010.31 1010.21 1010.13 1010.10 1010.13 1010.21 1010.32 1010.43 1010.50 1010.50 1010.42 1010.24 1009.98 1009.65 1009.30 1008.95 1008.64 1008.41 1008.29 1008.27 1008.37 1008.57 1008.86 1009.22 1009.62 1010.03 1010.41 1010.75 1011.01 1011.21 1011.33 1011.40 1011.43 1011.45 1011.48
1010.64 1010.57 1010.56 1010.59 1010.62 1010.63 1010.61 1010.55 1010.46 1010.38 1010.33 1010.32 1010.37 1010.46 1010.59 1010.72 1010.81 1010.83 1010.76 1010.59 1010.33 1009.99 1009.61 1009.21 1008.84 1008.52 1008.29 1008.15 1008.12 1008.19 1008.35 1008.59 1008.89 1009.22 1009.55 1009.87 1010.15 1010.39 1010.56 1010.68 1010.76 1010.80 1010.84
1010.72 1010.67 1010.66 1010.69 1010.73 1010.74 1010.73 1010.69 1010.63 1010.58 1010.56 1010.59 1010.66 1010.78 1010.92 1011.06 1011.15 1011.18 1011.11 1010.94 1010.68 1010.33 1009.94 1009.52 1009.12 1008.75 1008.44 1008.21 1008.06 1008.00 1008.03 1008.14 1008.31 1008.54 1008.80 1009.07 1009.34 1009.58 1009.79 1009.96 1010.07 1010.15 1010.20
1010.93 1010.88 1010.88 1010.90 1010.93 1010.94 1010.93 1010.91 1010.88 1010.86 1010.87 1010.93 1011.03 1011.16 1011.30 1011.43 1011.52 1011.53 1011.44 1011.27 1011.01 1010.67 1010.29 1009.88 1009.48 1009.10 1008.76 1008.47 1008.24 1008.08 1007.98 1007.96 1007.99 1008.09 1008.24 1008.43 1008.64 1008.86 1009.07 1009.26 1009.40 1009.51 1009.57
1011.37 1011.34 1011.33 1011.33 1011.34 1011.33 1011.32 1011.30 1011.28 1011.28 1011.31 1011.38 1011.49 1011.63 1011.76 1011.87 1011.93 1011.91 1011.80 1011.61 1011.35 1011.03 1010.67 1010.30 1009.93 1009.58 1009.26 1008.96 1008.69 1008.45 1008.25 1008.10 1007.99 1007.94 1007.95 1008.02 1008.13 1008.28 1008.45 1008.62 1008.77 1008.89 1008.98
1012.10 1012.07 1012.05 1012.04 1012.02 1011.99 1011.95 1011.91 1011.88 1011.88 1011.92 1011.99 1012.10 1012.22 1012.33 1012.41 1012.43 1012.37 1012.24 1012.03 1011.76 1011.46 1011.14 1010.82 1010.52 1010.22 1009.94 1009.67 1009.39 1009.11 1008.82 1008.55 1008.30 1008.09 1007.94 1007.85 1007.84 1007.88 1007.97 1008.10 1008.23 1008.35 1008.45
1013.08 1013.07 1013.05 1013.01 1012.96 1012.89 1012.81 1012.74 1012.69 1012.67 1012.69 1012.76 1012.85 1012.96 1013.04 1013.09 1013.07 1012.97 1012.81 1012.58 1012.31 1012.02 1011.74 1011.47 1011.23 1011.01 1010.78 1010.55 1010.28 1009.97 1009.63 1009.26 1008.88 1008.52 1008.20 1007.95 1007.78 1007.69 1007.68 1007.73 1007.83 1007.93 1008.03
1014.19 1014.21 1014.19 1014.15 1014.07 1013.97 1013.85 1013.73 1013.65 1013.60 1013.60 1013.64 1013.72 1013.81 1013.87 1013.89 1013.84 1013.71 1013.52 1013.27 1012.99 1012.71 1012.46 1012.23 1012.05 1011.88 1011.71 1011.52 1011.27 1010.96 1010.57 1010.13 1009.64 1009.15 1008.68 1008.27 1007.95 1007.73 1007.61 1007.58 1007.61 1007.68 1007.77
1015.28 1015.33 1015.34 1015.30 1015.20 1015.07 1014.91 1014.76 1014.63 1014.55 1014.53 1014.56 1014.62 1014.70 1014.75 1014.75 1014.69 1014.54 1014.33 1014.06 1013.77 1013.49 1013.24 1013.04 1012.89 1012.76 1012.63 1012.47 1012.25 1011.94 1011.53 1011.04 1010.48 1009.89 1009.31 1008.78 1008.34 1008.00 1007.77 1007.65 1007.62 1007.64 1007.70
1016.19 1016.29 1016.32 1016.29 1016.19 1016.04 1015.85 1015.67 1015.51 1015.41 1015.37 1015.39 1015.45 1015.52 1015.58 1015.59 1015.52 1015.36 1015.13 1014.85 1014.55 1014.25 1014.00 1013.79 1013.64 1013.53 1013.42 1013.28 1013.07 1012.78 1012.37 1011.87 1011.28 1010.65 1010.01 1009.41 1008.89 1008.47 1008.16 1007.96 1007.85 1007.82 1007.83
1016.82 1016.95 1017.01 1017.00 1016.90 1016.74 1016.55 1016.34 1016.17 1016.05 1016.00 1016.02 1016.09 1016.18 1016.25 1016.27 1016.21 1016.06 1015.83 1015.53 1015.21 1014.89 1014.61 1014.38 1014.21 1014.08 1013.97 1013.85 1013.66 1013.39 1013.01 1012.54 1011.97 1011.34 1010.70 1010.09 1009.54 1009.08 1008.72 1008.46 1008.30 1008.20 1008.14
1017.13 1017.28 1017.36 1017.36 1017.28 1017.12 1016.92 1016.71 1016.53 1016.41 1016.37 1016.40 1016.48 1016.59 1016.68 1016.72 1016.67 1016.53 1016.29 1015.98 1015.64 1015.29 1014.97 1014.70 1014.50 1014.35 1014.23 1014.11 1013.94 1013.71 1013.39 1012.97 1012.47 1011.91 1011.32 1010.75 1010.22 1009.76 1009.38 1009.09 1008.87 1008.71 1008.57
1017.16 1017.32 1017.41 1017.41 1017.34 1017.19 1017.00 1016.80 1016.63 1016.52 1016.48 1016.52 1016.62 1016.74 1016.84 1016.88 1016.85 1016.70 1016.46 1016.14 1015.77 1015.39 1015.04 1014.73 1014.49 1014.32 1014.18 1014.06 1013.93 1013.74 1013.49 1013.15 1012.74 1012.28 1011.79 1011.29 1010.83 1010.41 1010.04 1009.74 1009.48 1009.26 1009.05
1017.02 1017.16 1017.24 1017.25 1017.18 1017.04 1016.87 1016.69 1016.53 1016.44 1016.41 1016.45 1016.55 1016.66 1016.76 1016.79 1016.74 1016.59 1016.33 1015.99 1015.60 1015.19 1014.81 1014.47 1014.21 1014.01 1013.87 1013.76 1013.65 1013.52 1013.33 1013.09 1012.79 1012.44 1012.05 1011.66 1011.28 1010.91 1010.58 1010.28 1010.00 1009.73 1009.45
Thickness
5788 5788 5787 5786 5786 5786 5784 5783 5782 5782 5782 5782 5781 5780 5779 5777 5774 5771 5766 5764 5762 5761 5759 5757 5754 5752 5750 5748 5746 5745 5743 5741 5740 5738 5737 5736 5734 5733 5732 5731 5730 5729 5728
5790 5789 5787 5786 5787 5787 5786 5785 5783 5783 5782 5782 5780 5779 5778 5777 5775 5772 5768 5764 5762 5761 5759 5757 5755 5753 5751 5749 5747 5745 5743 5741 5740 5738 5737 5735 5734 5733 5732 5731 5730 5728 5727
5791 5790 5788 5787 5787 5788 5788 5786 5785 5784 5783 5781 5780 5780 5778 5777 5775 5773 5770 5766 5763 5761 5760 5758 5756 5754 5752 5750 5747 5745 5743 5741 5740 5738 5736 5735 5734 5733 5732 5730 5729 5728 5726
5792 5791 5789 5788 5788 5788 5788 5786 5785 5783 5782 5780 5779 5779 5778 5777 5776 5774 5772 5769 5766 5764 5761 5759 5757 5754 5752 5750 5748 5746 5744 5742 5739 5738 5736 5734 5733 5732 5731 5729 5728 5727 5725
5793 5792 5790 5789 5789 5788 5787 5787 5785 5784 5780 5779 5779 5780 5779 5778 5777 5777 5774 5772 5769 5767 5763 5760 5757 5755 5753 5751 5748 5746 5744 5742 5739 5738 5736 5734 5733 5731 5730 5728 5727 5726 5725
5794 5792 5791 5790 5789 5788 5786 5785 5783 5783 5781 5780 5780 5780 5780 5780 5780 5778 5776 5775 5772 5770 5766 5762 5758 5755 5753 5751 5748 5746 5744 5742 5740 5738 5736 5734 5732 5731 5729 5728 5726 5725 5724
5794 5793 5791 5790 5789 5787 5786 5785 5783 5781 5781 5782 5777 5775 5778 5781 5780 5779 5778 5776 5774 5772 5768 5764 5760 5758 5754 5751 5749 5746 5744 5742 5740 5738 5736 5734 5732 5730 5729 5727 5726 5725 5724
5794 5794 5791 5790 5789 5787 5785 5784 5782 5780 5781 5782 5776 5770 5766 5769 5775 5781 5778 5775 5774 5773 5770 5767 5763 5761 5758 5753 5750 5747 5745 5742 5740 5738 5736 5734 5732 5730 5729 5727 5725 5724 5723
5794 5793 5791 5790 5789 5787 5784 5783 5782 5780 5776 5780 5781 5772 5763 5758 5765 5772 5775 5775 5774 5772 5771 5769 5767 5764 5760 5756 5752 5748 5745 5742 5740 5738 5736 5733 5732 5730 5728 5727 5725 5724 5722
5794 5793 5791 5790 5788 5787 5785 5784 5783 5781 5778 5775 5778 5779 5776 5772 5763 5760 5767 5771 5773 5772 5771 5771 5768 5765 5761 5757 5753 5749 5746 5743 5740 5738 5736 5733 5731 5730 5728 5726 5725 5723 5721
5794 5792 5790 5789 5787 5785 5784 5783 5782 5780 5778 5775 5774 5775 5774 5774 5771 5762 5757 5763 5767 5771 5771 5770 5768 5765 5762 5758 5754 5750 5747 5744 5741 5738 5736 5733 5731 5729 5727 5725 5724 5722 5721
5793 5791 5790 5788 5787 5785 5783 5782 5781 5779 5778 5776 5775 5775 5772 5769 5766 5764 5760 5760 5760 5765 5770 5770 5768 5765 5762 5758 5755 5752 5748 5744 5741 5738 5735 5733 5731 5728 5726 5724 5723 5721 5720
5791 5790 5790 5788 5786 5785 5783 5782 5780 5778 5777 5775 5774 5773 5773 5773 5772 5768 5763 5760 5759 5762 5766 5768 5768 5766 5762 5759 5755 5752 5748 5744 5741 5738 5735 5732 5730 5728 5725 5724 5722 5720 5719
5793 5792 5790 5788 5786 5784 5783 5781 5779 5778 5777 5775 5774 5773 5772 5773 5773 5770 5765 5759 5754 5755 5759 5762 5766 5766 5763 5760 5756 5752 5748 5744 5741 5737 5734 5731 5729 5726 5724 5722 5721 5719 5718
5794 5793 5790 5788 5785 5783 5781 5779 5777 5775 5774 5772 5771 5771 5769 5770 5771 5770 5768 5763 5753 5746 5748 5756 5759 5763 5762 5759 5755 5751 5748 5744 5740 5737 5734 5730 5727 5725 5722 5721 5719 5717 5715
5792 5791 5789 5787 5784 5782 5780 5777 5775 5773 5771 5770 5769 5767 5767 5767 5767 5767 5765 5763 5760 5752 5747 5754 5756 5759 5758 5757 5753 5750 5747 5743 5740 5736 5733 5729 5727 5724 5721 5719 5717 5715 5713
5791 5788 5786 5784 5782 5779 5778 5775 5773 5771 5769 5767 5767 5765 5764 5764 5762 5762 5762 5760 5757 5754 5747 5751 5754 5755 5754 5752 5749 5747 5745 5742 5738 5736 5733 5729 5726 5723 5720 5717 5715 5713 5711
5789 5787 5785 5782 5780 5778 5776 5773 5770 5769 5766 5764 5764 5762 5761 5761 5759 5758 5756 5755 5754 5753 5748 5744 5747 5749 5748 5748 5746 5744 5742 5740 5738 5735 5732 5728 5725 5721 5718 5716 5713 5711 5708
5787 5785 5783 5780 5778 5776 5773 5771 5769 5767 5764 5762 5761 5759 5758 5756 5754 5754 5752 5751 5750 5751 5748 5744 5743 5744 5744 5743 5740 5739 5738 5737 5735 5733 5730 5726 5723 5720 5717 5714 5711 5708 5705
5785 5782 5780 5778 5775 5773 5770 5768 5766 5764 5762 5760 5759 5757 5756 5753 5751 5750 5749 5747 5746 5744 5743 5740 5738 5738 5736 5737 5734 5730 5729 5729 5729 5729 5726 5724 5721 5718 5715 5712 5709 5706 5703
5783 5780 5777 5774 5772 5769 5767 5764 5762 5761 5758 5756 5756 5755 5753 5751 5749 5747 5745 5742 5740 5737 5735 5733 5731 5730 5728 5727 5725 5724 5721 5722 5723 5723 5720 5719 5716 5713 5711 5708 5705 5703 5700
5779 5777 5774 5771 5767 5766 5763 5760 5758 5756 5754 5752 5750 5750 5748 5747 5745 5743 5741 5738 5735 5731 5729 5726 5724 5722 5721 5721 5720 5718 5715 5713 5712 5718 5714 5713 5713 5709 5708 5706 5704 5701 5697
5775 5772 5770 5767 5763 5760 5758 5755 5752 5751 5749 5748 5746 5744 5743 5743 5740 5737 5735 5732 5730 5727 5724 5720 5717 5716 5715 5716 5714 5711 5709 5707 5706 5710 5708 5705 5707 5705 5706 5704 5701 5698 5694
5769 5767 5765 5763 5760 5757 5754 5751 5748 5746 5745 5744 5742 5740 5737 5735 5734 5730 5728 5725 5723 5721 5719 5716 5715 5714 5713 5712 5710 5707 5705 5704 5704 5705 5703 5697 5699 5699 5700 5698 5696 5693 5690
5764 5762 5760 5758 5755 5752 5749 5746 5742 5741 5740 5739 5737 5735 5733 5730 5726 5723 5720 5717 5715 5714 5714 5712 5710 5708 5706 5705 5703 5700 5697 5694 5693 5695 5697 5693 5692 5691 5691 5690 5689 5687 5684
5759 5757 5755 5754 5751 5748 5744 5740 5736 5735 5733 5732 5731 5730 5727 5723 5719 5715 5712 5709 5705 5705 5706 5705 5702 5701 5700 5698 5696 5694 5691 5687 5685 5685 5689 5686 5684 5682 5680 5683 5681 5679 5677